| time (UTC) | temp F | wind direction | speed MPH | gust MPH | rain 1hr in | rain 24hr in | rain mn in | humidity % | barometer mb |
| 20260509005341 | 51 | 257 | 0.0 | 0.0 | 0.00 | 0.05 | 0.05 | 79 | 1012.8 |
| 20260509004852 | 51 | 257 | 0.0 | 0.0 | 0.00 | 0.05 | 0.05 | 79 | 1012.7 |
| 20260509004538 | 51 | 0 | 0.0 | 0.0 | 0.00 | 0.05 | 0.05 | 78 | 1011.9 |
| 20260509004509 | 51 | 257 | 0.0 | 0.0 | 0.00 | 0.05 | 0.05 | 78 | 1012.6 |
| 20260509004402 | 51 | 257 | 0.0 | 0.0 | 0.00 | 0.05 | 0.05 | 78 | 1012.6 |
| 20260509003853 | 52 | 257 | 0.0 | 0.0 | 0.00 | 0.05 | 0.05 | 78 | 1012.4 |
| 20260509003404 | 52 | 257 | 0.0 | 0.0 | 0.00 | 0.05 | 0.05 | 77 | 1012.4 |
| 20260509003109 | 52 | 257 | 0.0 | 0.0 | 0.00 | 0.05 | 0.05 | 77 | 1012.5 |
| 20260509003045 | 52 | 0 | 0.0 | 0.0 | 0.00 | 0.05 | 0.05 | 76 | 1011.7 |
| 20260509002911 | 52 | 257 | 0.0 | 0.0 | 0.00 | 0.05 | 0.05 | 76 | 1012.3 |
| 20260509002340 | 53 | 257 | 0.0 | 1.0 | 0.00 | 0.05 | 0.05 | 75 | 1012.3 |
| 20260509001850 | 53 | 257 | 0.0 | 1.0 | 0.00 | 0.05 | 0.05 | 74 | 1012.2 |
| 20260509001618 | 53 | 257 | 0.0 | 1.0 | 0.00 | 0.05 | 0.05 | 74 | 1012.3 |
| 20260509001543 | 53 | 0 | 0.0 | 1.0 | 0.00 | 0.05 | 0.05 | 73 | 1011.5 |
| 20260509001338 | 54 | 257 | 0.0 | 1.0 | 0.00 | 0.05 | 0.05 | 73 | 1012.3 |
| 20260509000849 | 54 | 257 | 0.0 | 1.0 | 0.00 | 0.05 | 0.05 | 72 | 1012.3 |
| 20260509000344 | 55 | 257 | 0.0 | 1.0 | 0.00 | 0.05 | 0.05 | 71 | 1012.3 |
| 20260509000106 | 54 | 257 | 0.0 | 1.0 | 0.00 | 0.05 | 0.05 | 70 | 1012.4 |
| 20260509000039 | 55 | 0 | 0.0 | 1.0 | 0.00 | 0.05 | 0.05 | 70 | 1011.6 |
| 20260508235850 | 55 | 257 | 0.0 | 1.0 | 0.00 | 0.05 | 0.05 | 70 | 1012.3 |
| 20260508235340 | 56 | 257 | 0.0 | 1.0 | 0.00 | 0.05 | 0.05 | 69 | 1012.2 |
| 20260508234851 | 56 | 257 | 0.0 | 1.0 | 0.00 | 0.05 | 0.05 | 68 | 1012.1 |
| 20260508234615 | 56 | 257 | 0.0 | 1.0 | 0.00 | 0.05 | 0.05 | 68 | 1012.1 |
| 20260508234540 | 56 | 0 | 0.0 | 1.0 | 0.00 | 0.05 | 0.05 | 67 | 1011.4 |
| 20260508234340 | 56 | 257 | 0.0 | 1.0 | 0.00 | 0.05 | 0.05 | 68 | 1012.0 |
| 20260508233852 | 57 | 257 | 0.0 | 1.0 | 0.00 | 0.05 | 0.05 | 68 | 1011.9 |
| 20260508233344 | 57 | 257 | 0.0 | 1.0 | 0.00 | 0.05 | 0.05 | 66 | 1012.0 |
| 20260508233143 | 56 | 257 | 0.0 | 1.0 | 0.00 | 0.05 | 0.05 | 66 | 1012.1 |
| 20260508233048 | 56 | 0 | 0.0 | 3.0 | 0.00 | 0.05 | 0.05 | 65 | 1011.4 |
| 20260508232851 | 57 | 259 | 0.0 | 1.0 | 0.00 | 0.05 | 0.05 | 66 | 1012.0 |
| 20260508232401 | 57 | 231 | 1.0 | 3.0 | 0.00 | 0.05 | 0.05 | 64 | 1012.0 |
| 20260508231850 | 57 | 222 | 2.0 | 3.0 | 0.00 | 0.05 | 0.05 | 65 | 1012.1 |
| 20260508231615 | 57 | 248 | 1.0 | 2.0 | 0.00 | 0.05 | 0.05 | 66 | 1012.1 |
| 20260508231543 | 57 | 244 | 0.0 | 2.0 | 0.00 | 0.05 | 0.05 | 64 | 1011.4 |
| 20260508231340 | 57 | 286 | 0.0 | 2.0 | 0.00 | 0.05 | 0.05 | 66 | 1012.0 |
| 20260508230852 | 57 | 286 | 1.0 | 2.0 | 0.00 | 0.05 | 0.05 | 65 | 1011.9 |
| 20260508230343 | 57 | 221 | 1.0 | 2.0 | 0.00 | 0.05 | 0.05 | 64 | 1011.8 |
| 20260508230107 | 57 | 268 | 0.0 | 4.0 | 0.00 | 0.05 | 0.05 | 65 | 1011.9 |
| 20260508230047 | 57 | 0 | 0.0 | 4.0 | 0.00 | 0.05 | 0.05 | 64 | 1011.1 |
| 20260508225849 | 57 | 272 | 1.0 | 4.0 | 0.00 | 0.05 | 0.05 | 65 | 1011.7 |
| 20260508225340 | 58 | 284 | 2.0 | 5.0 | 0.00 | 0.05 | 0.05 | 63 | 1011.6 |
| 20260508224851 | 58 | 304 | 1.0 | 5.0 | 0.00 | 0.05 | 0.05 | 62 | 1011.6 |
| 20260508224617 | 57 | 296 | 1.0 | 4.0 | 0.00 | 0.05 | 0.05 | 62 | 1011.7 |
| 20260508224543 | 57 | 306 | 1.0 | 8.0 | 0.00 | 0.05 | 0.05 | 62 | 1011.0 |
| 20260508224340 | 58 | 330 | 3.0 | 8.0 | 0.00 | 0.05 | 0.05 | 63 | 1011.6 |
| 20260508223913 | 58 | 284 | 2.0 | 8.0 | 0.00 | 0.05 | 0.05 | 64 | 1011.7 |
| 20260508223344 | 58 | 334 | 2.0 | 7.0 | 0.00 | 0.05 | 0.05 | 63 | 1011.7 |
| 20260508223107 | 58 | 217 | 1.0 | 7.0 | 0.00 | 0.05 | 0.05 | 63 | 1011.7 |
| 20260508223040 | 58 | 211 | 1.0 | 7.0 | 0.00 | 0.05 | 0.05 | 62 | 1011.1 |
| 20260508222851 | 58 | 294 | 2.0 | 7.0 | 0.00 | 0.05 | 0.05 | 64 | 1011.6 |
| 20260508222342 | 58 | 236 | 1.0 | 9.0 | 0.00 | 0.05 | 0.05 | 62 | 1011.6 |
| 20260508221852 | 58 | 252 | 4.0 | 9.0 | 0.00 | 0.05 | 0.05 | 62 | 1011.6 |
| 20260508221539 | 58 | 253 | 1.0 | 6.0 | 0.00 | 0.05 | 0.05 | 63 | 1011.0 |
| 20260508221503 | 58 | 238 | 1.0 | 5.0 | 0.00 | 0.05 | 0.05 | 64 | 1011.7 |
| 20260508221402 | 58 | 213 | 1.0 | 8.0 | 0.00 | 0.05 | 0.05 | 63 | 1011.6 |
| 20260508220850 | 58 | 313 | 2.0 | 9.0 | 0.00 | 0.05 | 0.05 | 63 | 1011.5 |
| 20260508220342 | 58 | 275 | 4.0 | 8.0 | 0.00 | 0.05 | 0.05 | 62 | 1011.6 |
| 20260508220109 | 58 | 320 | 2.0 | 5.0 | 0.00 | 0.05 | 0.05 | 62 | 1011.7 |
| 20260508220041 | 58 | 263 | 2.0 | 6.0 | 0.00 | 0.05 | 0.05 | 62 | 1011.0 |
| 20260508215849 | 59 | 227 | 3.0 | 6.0 | 0.00 | 0.05 | 0.05 | 62 | 1011.5 |
| 20260508215339 | 59 | 267 | 2.0 | 8.0 | 0.00 | 0.05 | 0.05 | 62 | 1011.5 |
| 20260508214850 | 59 | 296 | 3.0 | 8.0 | 0.00 | 0.05 | 0.05 | 62 | 1011.6 |
| 20260508214621 | 58 | 197 | 3.0 | 11.0 | 0.00 | 0.05 | 0.05 | 63 | 1011.7 |
| 20260508214539 | 58 | 315 | 2.0 | 11.0 | 0.00 | 0.05 | 0.05 | 63 | 1010.9 |
| 20260508214340 | 58 | 279 | 3.0 | 11.0 | 0.00 | 0.05 | 0.05 | 63 | 1011.7 |
| 20260508213850 | 58 | 274 | 4.0 | 11.0 | 0.00 | 0.05 | 0.05 | 65 | 1011.7 |
| 20260508213341 | 58 | 213 | 2.0 | 5.0 | 0.00 | 0.05 | 0.05 | 64 | 1011.9 |
| 20260508213104 | 57 | 226 | 2.0 | 5.0 | 0.00 | 0.05 | 0.05 | 64 | 1012.0 |
| 20260508213041 | 57 | 229 | 1.0 | 5.0 | 0.00 | 0.05 | 0.05 | 63 | 1011.2 |
| 20260508212848 | 58 | 324 | 2.0 | 5.0 | 0.00 | 0.05 | 0.05 | 64 | 1012.0 |
| 20260508212341 | 57 | 245 | 1.0 | 4.0 | 0.00 | 0.05 | 0.05 | 65 | 1012.0 |
| 20260508211906 | 57 | 295 | 0.0 | 4.0 | 0.00 | 0.05 | 0.05 | 64 | 1012.0 |
| 20260508211613 | 57 | 292 | 1.0 | 4.0 | 0.00 | 0.05 | 0.05 | 64 | 1012.1 |
| 20260508211540 | 57 | 239 | 1.0 | 4.0 | 0.00 | 0.05 | 0.05 | 63 | 1011.4 |
| 20260508211339 | 57 | 175 | 2.0 | 4.0 | 0.00 | 0.05 | 0.05 | 65 | 1012.0 |
| 20260508210847 | 57 | 248 | 2.0 | 7.0 | 0.00 | 0.05 | 0.05 | 64 | 1012.1 |
| 20260508210414 | 58 | 252 | 3.0 | 7.0 | 0.00 | 0.05 | 0.05 | 64 | 1012.1 |
| 20260508210133 | 57 | 273 | 2.0 | 7.0 | 0.00 | 0.05 | 0.05 | 63 | 1012.1 |
| 20260508210040 | 57 | 322 | 2.0 | 7.0 | 0.00 | 0.05 | 0.05 | 63 | 1011.4 |
| 20260508205843 | 58 | 230 | 3.0 | 7.0 | 0.00 | 0.05 | 0.05 | 63 | 1012.1 |
| 20260508205352 | 58 | 277 | 3.0 | 7.0 | 0.00 | 0.05 | 0.05 | 62 | 1012.0 |
| 20260508204901 | 58 | 194 | 2.0 | 5.0 | 0.00 | 0.05 | 0.05 | 62 | 1012.0 |
| 20260508204602 | 58 | 280 | 2.0 | 9.0 | 0.00 | 0.05 | 0.05 | 63 | 1012.1 |
| 20260508204547 | 58 | 0 | 2.0 | 9.0 | 0.00 | 0.05 | 0.05 | 62 | 1011.3 |
| 20260508204348 | 58 | 244 | 2.0 | 9.0 | 0.00 | 0.05 | 0.05 | 61 | 1012.0 |
| 20260508203839 | 58 | 280 | 4.0 | 9.0 | 0.00 | 0.05 | 0.05 | 60 | 1011.8 |
| 20260508203349 | 59 | 232 | 5.0 | 13.0 | 0.00 | 0.05 | 0.05 | 60 | 1011.8 |
| 20260508203109 | 58 | 290 | 4.0 | 16.0 | 0.00 | 0.05 | 0.05 | 60 | 1011.9 |
| 20260508203048 | 58 | 260 | 3.0 | 16.0 | 0.00 | 0.05 | 0.05 | 59 | 1011.1 |
| 20260508202853 | 58 | 261 | 4.0 | 16.0 | 0.00 | 0.05 | 0.05 | 57 | 1011.7 |
| 20260508202341 | 58 | 41 | 6.0 | 16.0 | 0.00 | 0.05 | 0.05 | 60 | 1011.7 |
| 20260508201850 | 58 | 271 | 5.0 | 15.0 | 0.00 | 0.05 | 0.05 | 61 | 1011.8 |
| 20260508201615 | 57 | 248 | 8.0 | 18.0 | 0.00 | 0.05 | 0.05 | 60 | 1011.9 |
| 20260508201535 | 57 | 334 | 8.0 | 18.0 | 0.00 | 0.05 | 0.05 | 60 | 1011.1 |
| 20260508201339 | 58 | 279 | 5.0 | 18.0 | 0.00 | 0.05 | 0.05 | 63 | 1011.8 |
| 20260508200907 | 58 | 26 | 6.0 | 18.0 | 0.00 | 0.05 | 0.05 | 63 | 1011.8 |
| 20260508200357 | 57 | 287 | 4.0 | 11.0 | 0.00 | 0.05 | 0.05 | 66 | 1011.8 |
| 20260508200050 | 57 | 297 | 4.0 | 11.0 | 0.00 | 0.05 | 0.05 | 67 | 1011.2 |
| 20260508200002 | 57 | 289 | 5.0 | 11.0 | 0.00 | 0.05 | 0.05 | 68 | 1011.9 |
| 20260508195901 | 57 | 265 | 2.0 | 11.0 | 0.00 | 0.05 | 0.05 | 69 | 1011.8 |
| 20260508195349 | 57 | 265 | 4.0 | 11.0 | 0.00 | 0.05 | 0.05 | 69 | 1011.8 |
| 20260508194839 | 56 | 22 | 5.0 | 15.0 | 0.00 | 0.05 | 0.05 | 71 | 1012.0 |
| 20260508194621 | 55 | 267 | 5.0 | 15.0 | 0.00 | 0.05 | 0.05 | 69 | 1012.1 |
| 20260508194542 | 55 | 300 | 4.0 | 15.0 | 0.00 | 0.05 | 0.05 | 69 | 1011.4 |
| 20260508194347 | 55 | 327 | 3.0 | 9.0 | 0.00 | 0.05 | 0.05 | 71 | 1012.2 |
| 20260508193855 | 55 | 355 | 4.0 | 8.0 | 0.00 | 0.05 | 0.05 | 72 | 1012.3 |
| 20260508193345 | 54 | 296 | 2.0 | 10.0 | 0.00 | 0.05 | 0.05 | 73 | 1012.4 |
| 20260508193111 | 54 | 296 | 1.0 | 10.0 | 0.00 | 0.05 | 0.05 | 73 | 1012.5 |
| 20260508193042 | 54 | 292 | 4.0 | 10.0 | 0.00 | 0.05 | 0.05 | 72 | 1011.7 |
| 20260508192852 | 54 | 290 | 5.0 | 10.0 | 0.00 | 0.05 | 0.05 | 74 | 1012.5 |
| 20260508192341 | 54 | 294 | 2.0 | 11.0 | 0.00 | 0.05 | 0.05 | 71 | 1012.4 |
| 20260508191849 | 54 | 276 | 5.0 | 19.0 | 0.00 | 0.05 | 0.05 | 68 | 1012.8 |
| 20260508191617 | 54 | 299 | 5.0 | 19.0 | 0.00 | 0.05 | 0.05 | 67 | 1012.8 |
| 20260508191543 | 54 | 248 | 3.0 | 19.0 | 0.00 | 0.05 | 0.05 | 66 | 1012.1 |
| 20260508191359 | 55 | 18 | 4.0 | 19.0 | 0.00 | 0.05 | 0.05 | 65 | 1012.8 |
| 20260508190849 | 56 | 283 | 10.0 | 19.0 | 0.00 | 0.05 | 0.05 | 64 | 1012.8 |
| 20260508190340 | 57 | 197 | 7.0 | 16.0 | 0.00 | 0.05 | 0.05 | 61 | 1012.6 |
| 20260508190105 | 57 | 281 | 5.0 | 10.0 | 0.00 | 0.05 | 0.05 | 60 | 1012.5 |
| 20260508190036 | 57 | 305 | 4.0 | 15.0 | 0.00 | 0.05 | 0.05 | 59 | 1011.7 |
| 20260508185909 | 58 | 285 | 4.0 | 14.0 | 0.00 | 0.05 | 0.05 | 59 | 1012.3 |
| 20260508185358 | 58 | 279 | 7.0 | 15.0 | 0.00 | 0.05 | 0.05 | 58 | 1012.2 |
| 20260508184847 | 59 | 289 | 6.0 | 16.0 | 0.00 | 0.05 | 0.05 | 56 | 1012.1 |
| 20260508184649 | 58 | 273 | 6.0 | 18.0 | 0.00 | 0.05 | 0.05 | 57 | 1012.2 |
| 20260508184549 | 58 | 284 | 6.0 | 18.0 | 0.00 | 0.05 | 0.05 | 57 | 1011.5 |
| 20260508184338 | 59 | 262 | 8.0 | 18.0 | 0.00 | 0.05 | 0.05 | 56 | 1012.0 |
| 20260508183849 | 59 | 297 | 6.0 | 18.0 | 0.00 | 0.05 | 0.05 | 58 | 1012.1 |
| 20260508183340 | 58 | 290 | 6.0 | 15.0 | 0.00 | 0.05 | 0.05 | 59 | 1012.1 |
| 20260508183104 | 58 | 215 | 2.0 | 15.0 | 0.00 | 0.05 | 0.05 | 62 | 1012.1 |
| 20260508183039 | 58 | 278 | 4.0 | 15.0 | 0.00 | 0.05 | 0.05 | 60 | 1011.3 |
| 20260508182846 | 58 | 185 | 6.0 | 15.0 | 0.00 | 0.05 | 0.05 | 61 | 1012.1 |
| 20260508182336 | 58 | 199 | 5.0 | 14.0 | 0.00 | 0.05 | 0.05 | 60 | 1011.9 |
| 20260508181846 | 58 | 227 | 5.0 | 10.0 | 0.00 | 0.05 | 0.05 | 65 | 1011.9 |
| 20260508181614 | 57 | 293 | 1.0 | 10.0 | 0.00 | 0.05 | 0.05 | 63 | 1011.8 |
| 20260508181539 | 57 | 208 | 1.0 | 10.0 | 0.00 | 0.05 | 0.05 | 64 | 1011.0 |
| 20260508181337 | 57 | 279 | 2.0 | 10.0 | 0.00 | 0.05 | 0.05 | 63 | 1011.8 |
| 20260508180909 | 58 | 249 | 3.0 | 12.0 | 0.00 | 0.05 | 0.05 | 60 | 1011.7 |
| 20260508180358 | 58 | 267 | 5.0 | 16.0 | 0.00 | 0.05 | 0.05 | 60 | 1011.7 |
| 20260508180039 | 58 | 253 | 5.0 | 18.0 | 0.00 | 0.05 | 0.05 | 55 | 1011.1 |
| 20260508175845 | 58 | 170 | 9.0 | 18.0 | 0.00 | 0.05 | 0.05 | 54 | 1011.8 |
| 20260508175335 | 59 | 251 | 4.0 | 18.0 | 0.00 | 0.05 | 0.05 | 54 | 1011.7 |
| 20260508174846 | 59 | 217 | 5.0 | 11.0 | 0.00 | 0.05 | 0.05 | 54 | 1011.6 |
| 20260508174613 | 59 | 229 | 3.0 | 11.0 | 0.00 | 0.05 | 0.05 | 54 | 1011.6 |
| 20260508174546 | 59 | 206 | 5.0 | 14.0 | 0.00 | 0.05 | 0.05 | 53 | 1010.9 |
| 20260508174336 | 60 | 89 | 6.0 | 14.0 | 0.00 | 0.05 | 0.05 | 52 | 1011.5 |
| 20260508173847 | 60 | 221 | 5.0 | 14.0 | 0.00 | 0.05 | 0.05 | 53 | 1011.5 |
| 20260508173353 | 59 | 267 | 4.0 | 17.0 | 0.00 | 0.05 | 0.05 | 56 | 1011.7 |
| 20260508173040 | 58 | 326 | 6.0 | 17.0 | 0.00 | 0.05 | 0.05 | 54 | 1011.0 |
| 20260508173001 | 58 | 286 | 5.0 | 17.0 | 0.00 | 0.05 | 0.05 | 55 | 1011.8 |
| 20260508172859 | 59 | 257 | 7.0 | 17.0 | 0.00 | 0.05 | 0.05 | 53 | 1011.7 |
| 20260508172348 | 59 | 302 | 3.0 | 10.0 | 0.00 | 0.05 | 0.05 | 55 | 1011.8 |
| 20260508171838 | 59 | 206 | 2.0 | 12.0 | 0.00 | 0.05 | 0.05 | 57 | 1011.7 |
| 20260508171606 | 59 | 313 | 4.0 | 12.0 | 0.00 | 0.05 | 0.05 | 54 | 1011.8 |
| 20260508171538 | 59 | 307 | 3.0 | 16.0 | 0.00 | 0.05 | 0.05 | 53 | 1011.0 |
| 20260508171349 | 59 | 272 | 4.0 | 14.0 | 0.00 | 0.05 | 0.05 | 53 | 1011.7 |
| 20260508170900 | 59 | 190 | 5.0 | 16.0 | 0.00 | 0.05 | 0.05 | 53 | 1011.7 |
| 20260508170411 | 60 | 298 | 5.0 | 11.0 | 0.00 | 0.05 | 0.05 | 52 | 1011.6 |
| 20260508170116 | 60 | 294 | 3.0 | 11.0 | 0.00 | 0.05 | 0.05 | 52 | 1011.6 |
| 20260508170050 | 60 | 230 | 4.0 | 11.0 | 0.00 | 0.05 | 0.05 | 52 | 1011.0 |
| 20260508165836 | 61 | 247 | 6.0 | 11.0 | 0.00 | 0.05 | 0.05 | 51 | 1011.6 |
| 20260508165347 | 60 | 199 | 3.0 | 9.0 | 0.00 | 0.05 | 0.05 | 54 | 1011.6 |
| 20260508164841 | 60 | 200 | 4.0 | 15.0 | 0.00 | 0.05 | 0.05 | 53 | 1011.6 |
| 20260508164605 | 60 | 238 | 4.0 | 15.0 | 0.00 | 0.05 | 0.05 | 51 | 1011.6 |
| 20260508164545 | 60 | 0 | 5.0 | 15.0 | 0.00 | 0.05 | 0.05 | 53 | 1010.9 |
| 20260508164350 | 60 | 274 | 5.0 | 15.0 | 0.00 | 0.05 | 0.05 | 51 | 1011.5 |
| 20260508163838 | 61 | 198 | 5.0 | 11.0 | 0.00 | 0.05 | 0.05 | 50 | 1011.7 |
| 20260508163349 | 60 | 235 | 3.0 | 14.0 | 0.00 | 0.05 | 0.05 | 56 | 1011.8 |
| 20260508163110 | 60 | 240 | 5.0 | 14.0 | 0.00 | 0.05 | 0.05 | 50 | 1011.8 |
| 20260508163037 | 60 | 332 | 7.0 | 14.0 | 0.00 | 0.05 | 0.05 | 51 | 1011.2 |
| 20260508162836 | 60 | 315 | 7.0 | 14.0 | 0.00 | 0.05 | 0.05 | 53 | 1011.9 |
| 20260508162346 | 61 | 188 | 4.0 | 10.0 | 0.00 | 0.05 | 0.05 | 52 | 1011.9 |
| 20260508161855 | 60 | 171 | 3.0 | 10.0 | 0.00 | 0.05 | 0.05 | 55 | 1011.9 |
| 20260508161543 | 59 | 153 | 1.0 | 9.0 | 0.00 | 0.05 | 0.05 | 50 | 1011.4 |
| 20260508161506 | 59 | 162 | 2.0 | 8.0 | 0.00 | 0.05 | 0.05 | 50 | 1012.0 |
| 20260508161406 | 59 | 182 | 1.0 | 8.0 | 0.00 | 0.05 | 0.05 | 55 | 1012.0 |
| 20260508160836 | 58 | 229 | 4.0 | 9.0 | 0.00 | 0.05 | 0.05 | 53 | 1012.2 |
| 20260508160347 | 58 | 286 | 3.0 | 8.0 | 0.00 | 0.05 | 0.05 | 53 | 1012.2 |
| 20260508160109 | 58 | 190 | 2.0 | 8.0 | 0.00 | 0.05 | 0.05 | 53 | 1012.1 |
| 20260508160050 | 58 | 196 | 2.0 | 8.0 | 0.00 | 0.05 | 0.05 | 52 | 1011.6 |
| 20260508155853 | 58 | 32 | 3.0 | 8.0 | 0.00 | 0.05 | 0.05 | 52 | 1012.2 |
| 20260508155403 | 59 | 209 | 2.0 | 9.0 | 0.00 | 0.05 | 0.05 | 56 | 1012.3 |
| 20260508154850 | 59 | 319 | 3.0 | 10.0 | 0.00 | 0.05 | 0.05 | 53 | 1012.4 |
| 20260508154616 | 59 | 39 | 2.0 | 10.0 | 0.00 | 0.05 | 0.05 | 55 | 1012.3 |
| 20260508154548 | 59 | 15 | 2.0 | 10.0 | 0.00 | 0.05 | 0.05 | 54 | 1011.7 |
| 20260508154341 | 59 | 251 | 4.0 | 10.0 | 0.00 | 0.05 | 0.05 | 54 | 1012.4 |
| 20260508153852 | 59 | 264 | 4.0 | 11.0 | 0.00 | 0.05 | 0.05 | 56 | 1012.3 |
| 20260508153344 | 60 | 180 | 4.0 | 11.0 | 0.00 | 0.05 | 0.05 | 54 | 1012.2 |
| 20260508153109 | 59 | 297 | 3.0 | 10.0 | 0.00 | 0.05 | 0.05 | 54 | 1012.4 |
| 20260508153041 | 59 | 263 | 3.0 | 9.0 | 0.00 | 0.05 | 0.05 | 54 | 1011.6 |
| 20260508152850 | 59 | 190 | 3.0 | 9.0 | 0.00 | 0.05 | 0.05 | 57 | 1012.2 |
| 20260508152402 | 59 | 249 | 3.0 | 12.0 | 0.00 | 0.05 | 0.05 | 52 | 1012.2 |
| 20260508151851 | 59 | 284 | 5.0 | 10.0 | 0.00 | 0.05 | 0.05 | 54 | 1012.3 |
| 20260508151620 | 59 | 228 | 3.0 | 9.0 | 0.00 | 0.05 | 0.05 | 56 | 1012.3 |
| 20260508151539 | 59 | 256 | 2.0 | 9.0 | 0.00 | 0.05 | 0.05 | 53 | 1011.6 |
| 20260508151341 | 60 | 217 | 2.0 | 9.0 | 0.00 | 0.05 | 0.05 | 53 | 1012.2 |
| 20260508150913 | 59 | 297 | 2.0 | 8.0 | 0.00 | 0.05 | 0.05 | 53 | 1012.3 |
| 20260508150403 | 58 | 287 | 4.0 | 8.0 | 0.00 | 0.05 | 0.05 | 52 | 1012.3 |
| 20260508150107 | 58 | 312 | 3.0 | 8.0 | 0.00 | 0.05 | 0.05 | 51 | 1012.3 |
| 20260508150039 | 58 | 207 | 4.0 | 8.0 | 0.00 | 0.05 | 0.05 | 52 | 1011.7 |
| 20260508145849 | 58 | 206 | 4.0 | 8.0 | 0.00 | 0.05 | 0.05 | 57 | 1012.3 |
| 20260508145339 | 58 | 286 | 2.0 | 8.0 | 0.00 | 0.05 | 0.05 | 54 | 1012.3 |
| 20260508144850 | 57 | 290 | 2.0 | 10.0 | 0.00 | 0.05 | 0.05 | 54 | 1012.5 |
| 20260508144637 | 56 | 337 | 4.0 | 10.0 | 0.00 | 0.05 | 0.05 | 58 | 1012.6 |
| 20260508144538 | 57 | 213 | 4.0 | 10.0 | 0.00 | 0.05 | 0.05 | 55 | 1011.9 |
| 20260508144341 | 57 | 243 | 4.0 | 10.0 | 0.00 | 0.05 | 0.05 | 57 | 1012.6 |
| 20260508143852 | 56 | 289 | 2.0 | 8.0 | 0.00 | 0.05 | 0.05 | 61 | 1012.7 |
| 20260508143344 | 55 | 186 | 2.0 | 12.0 | 0.00 | 0.05 | 0.05 | 64 | 1012.8 |
| 20260508143114 | 55 | 242 | 3.0 | 15.0 | 0.00 | 0.05 | 0.05 | 62 | 1012.9 |
| 20260508143052 | 55 | 298 | 5.0 | 15.0 | 0.00 | 0.05 | 0.05 | 59 | 1012.2 |
| 20260508142850 | 56 | 272 | 5.0 | 15.0 | 0.00 | 0.05 | 0.05 | 61 | 1012.9 |
| 20260508142339 | 56 | 271 | 6.0 | 15.0 | 0.00 | 0.05 | 0.05 | 65 | 1012.8 |
| 20260508141849 | 56 | 303 | 4.0 | 10.0 | 0.00 | 0.05 | 0.05 | 63 | 1012.7 |
| 20260508141616 | 55 | 281 | 4.0 | 12.0 | 0.00 | 0.05 | 0.05 | 65 | 1012.8 |
| 20260508141542 | 55 | 240 | 2.0 | 12.0 | 0.00 | 0.05 | 0.05 | 62 | 1012.1 |
| 20260508141338 | 55 | 319 | 2.0 | 12.0 | 0.00 | 0.05 | 0.05 | 63 | 1012.7 |
| 20260508140849 | 55 | 281 | 2.0 | 8.0 | 0.00 | 0.05 | 0.05 | 64 | 1012.6 |
| 20260508140400 | 54 | 287 | 3.0 | 8.0 | 0.00 | 0.05 | 0.05 | 62 | 1012.6 |
| 20260508140104 | 53 | 315 | 1.0 | 5.0 | 0.00 | 0.05 | 0.05 | 66 | 1012.5 |
| 20260508140047 | 53 | 290 | 1.0 | 9.0 | 0.00 | 0.05 | 0.05 | 66 | 1011.9 |
| 20260508135846 | 54 | 52 | 2.0 | 9.0 | 0.00 | 0.05 | 0.05 | 67 | 1012.5 |
| 20260508135355 | 54 | 224 | 3.0 | 9.0 | 0.00 | 0.05 | 0.05 | 67 | 1012.5 |
| 20260508134847 | 54 | 18 | 4.0 | 10.0 | 0.00 | 0.05 | 0.05 | 69 | 1012.6 |
| 20260508134615 | 53 | 259 | 3.0 | 10.0 | 0.00 | 0.05 | 0.05 | 69 | 1012.6 |
| 20260508134541 | 53 | 223 | 5.0 | 10.0 | 0.00 | 0.05 | 0.05 | 67 | 1012.0 |
| 20260508134337 | 53 | 5 | 5.0 | 10.0 | 0.00 | 0.05 | 0.05 | 71 | 1012.6 |
| 20260508133848 | 53 | 212 | 3.0 | 8.0 | 0.00 | 0.05 | 0.05 | 71 | 1012.6 |
| 20260508133339 | 52 | 236 | 3.0 | 7.0 | 0.00 | 0.05 | 0.05 | 73 | 1012.6 |
| 20260508133122 | 52 | 232 | 3.0 | 12.0 | 0.00 | 0.05 | 0.05 | 75 | 1012.7 |
| 20260508133038 | 52 | 208 | 2.0 | 12.0 | 0.00 | 0.05 | 0.05 | 74 | 1012.1 |
| 20260508132846 | 52 | 275 | 2.0 | 12.0 | 0.00 | 0.05 | 0.05 | 74 | 1012.7 |
| 20260508132342 | 52 | 314 | 8.0 | 12.0 | 0.00 | 0.05 | 0.05 | 74 | 1012.7 |
| 20260508131852 | 51 | 329 | 3.0 | 9.0 | 0.00 | 0.05 | 0.05 | 76 | 1012.8 |
| 20260508131613 | 50 | 273 | 3.0 | 9.0 | 0.00 | 0.05 | 0.05 | 77 | 1012.8 |
| 20260508131539 | 50 | 309 | 4.0 | 9.0 | 0.00 | 0.05 | 0.05 | 77 | 1012.3 |
| 20260508131400 | 51 | 272 | 4.0 | 9.0 | 0.00 | 0.05 | 0.05 | 78 | 1012.8 |
| 20260508130903 | 51 | 251 | 3.0 | 9.0 | 0.00 | 0.05 | 0.05 | 79 | 1012.7 |
| 20260508130058 | 50 | 16 | 2.0 | 8.0 | 0.00 | 0.05 | 0.05 | 78 | 1012.1 |
| 20260508130049 | 50 | 41 | 2.0 | 8.0 | 0.00 | 0.05 | 0.05 | 79 | 1012.8 |
| 20260508125847 | 50 | 273 | 3.0 | 8.0 | 0.00 | 0.05 | 0.05 | 79 | 1012.7 |
| 20260508125337 | 50 | 321 | 2.0 | 9.0 | 0.00 | 0.05 | 0.05 | 80 | 1012.7 |
| 20260508124848 | 50 | 309 | 5.0 | 10.0 | 0.00 | 0.05 | 0.05 | 81 | 1012.9 |
| 20260508124618 | 49 | 284 | 3.0 | 10.0 | 0.00 | 0.05 | 0.05 | 80 | 1012.9 |
| 20260508124547 | 49 | 318 | 2.0 | 10.0 | 0.00 | 0.05 | 0.05 | 80 | 1012.3 |
| 20260508124338 | 50 | 355 | 4.0 | 10.0 | 0.00 | 0.05 | 0.05 | 81 | 1012.9 |
| 20260508123849 | 49 | 5 | 2.0 | 13.0 | 0.00 | 0.05 | 0.05 | 82 | 1013.0 |
| 20260508123340 | 49 | 336 | 6.0 | 13.0 | 0.00 | 0.05 | 0.05 | 82 | 1013.0 |
| 20260508123112 | 48 | 298 | 0.0 | 10.0 | 0.00 | 0.05 | 0.05 | 83 | 1013.0 |
| 20260508123051 | 48 | 0 | 3.0 | 9.0 | 0.00 | 0.05 | 0.05 | 83 | 1012.4 |
| 20260508122908 | 49 | 282 | 5.0 | 9.0 | 0.00 | 0.05 | 0.05 | 84 | 1013.1 |
| 20260508122416 | 49 | 360 | 2.0 | 7.0 | 0.00 | 0.05 | 0.05 | 85 | 1013.1 |
| 20260508121844 | 48 | 291 | 3.0 | 9.0 | 0.00 | 0.05 | 0.05 | 85 | 1013.1 |
| 20260508121612 | 48 | 311 | 1.0 | 9.0 | 0.00 | 0.05 | 0.05 | 86 | 1013.0 |
| 20260508121543 | 48 | 312 | 2.0 | 9.0 | 0.00 | 0.05 | 0.05 | 85 | 1012.4 |
| 20260508121355 | 48 | 346 | 3.0 | 9.0 | 0.00 | 0.05 | 0.05 | 87 | 1013.0 |
| 20260508120905 | 48 | 284 | 2.0 | 7.0 | 0.00 | 0.05 | 0.05 | 89 | 1012.9 |
| 20260508120356 | 48 | 315 | 3.0 | 7.0 | 0.00 | 0.05 | 0.05 | 90 | 1013.0 |
| 20260508120121 | 47 | 276 | 2.0 | 6.0 | 0.00 | 0.05 | 0.05 | 90 | 1013.0 |
| 20260508120047 | 47 | 211 | 0.0 | 8.0 | 0.00 | 0.05 | 0.05 | 89 | 1012.4 |
| 20260508115842 | 47 | 284 | 1.0 | 8.0 | 0.00 | 0.05 | 0.05 | 90 | 1012.9 |
| 20260508115414 | 47 | 225 | 2.0 | 9.0 | 0.00 | 0.05 | 0.05 | 90 | 1012.9 |
| 20260508114844 | 47 | 245 | 5.0 | 9.0 | 0.00 | 0.05 | 0.05 | 91 | 1012.8 |
| 20260508114612 | 46 | 323 | 3.0 | 9.0 | 0.00 | 0.05 | 0.05 | 92 | 1012.8 |
| 20260508114548 | 46 | 281 | 1.0 | 9.0 | 0.00 | 0.05 | 0.05 | 92 | 1012.2 |
| 20260508114354 | 46 | 250 | 1.0 | 9.0 | 0.00 | 0.05 | 0.05 | 93 | 1012.8 |
| 20260508113845 | 46 | 227 | 2.0 | 4.0 | 0.00 | 0.05 | 0.05 | 93 | 1012.7 |
| 20260508113416 | 46 | 238 | 0.0 | 4.0 | 0.00 | 0.05 | 0.05 | 93 | 1012.6 |
| 20260508113121 | 45 | 269 | 0.0 | 4.0 | 0.00 | 0.05 | 0.05 | 94 | 1012.6 |
| 20260508113040 | 45 | 0 | 0.0 | 5.0 | 0.00 | 0.05 | 0.05 | 93 | 1011.8 |
| 20260508112841 | 45 | 288 | 1.0 | 5.0 | 0.00 | 0.05 | 0.05 | 94 | 1012.6 |
| 20260508112412 | 45 | 281 | 1.0 | 8.0 | 0.00 | 0.05 | 0.05 | 94 | 1012.6 |
| 20260508111842 | 45 | 310 | 3.0 | 8.0 | 0.00 | 0.05 | 0.05 | 94 | 1012.6 |
| 20260508111611 | 44 | 292 | 1.0 | 5.0 | 0.00 | 0.05 | 0.05 | 94 | 1012.6 |
| 20260508111547 | 44 | 360 | 1.0 | 9.0 | 0.00 | 0.05 | 0.05 | 94 | 1012.0 |
| 20260508111352 | 44 | 300 | 2.0 | 9.0 | 0.00 | 0.05 | 0.05 | 94 | 1012.6 |
| 20260508110842 | 44 | 311 | 2.0 | 9.0 | 0.00 | 0.05 | 0.05 | 95 | 1012.5 |
| 20260508110353 | 44 | 309 | 2.0 | 5.0 | 0.00 | 0.05 | 0.05 | 95 | 1012.5 |
| 20260508110117 | 43 | 277 | 1.0 | 5.0 | 0.00 | 0.05 | 0.05 | 95 | 1012.6 |
| 20260508110041 | 43 | 277 | 2.0 | 6.0 | 0.00 | 0.05 | 0.05 | 94 | 1011.9 |
| 20260508105840 | 44 | 277 | 3.0 | 5.0 | 0.00 | 0.05 | 0.05 | 94 | 1012.5 |
| 20260508105349 | 43 | 309 | 1.0 | 2.0 | 0.00 | 0.05 | 0.05 | 94 | 1012.5 |
| 20260508104900 | 43 | 292 | 0.0 | 2.0 | 0.00 | 0.05 | 0.05 | 94 | 1012.5 |
| 20260508104607 | 43 | 292 | 0.0 | 2.0 | 0.00 | 0.05 | 0.05 | 94 | 1012.5 |
| 20260508104543 | 43 | 292 | 0.0 | 2.0 | 0.00 | 0.05 | 0.05 | 94 | 1011.9 |
| 20260508104349 | 43 | 292 | 1.0 | 2.0 | 0.00 | 0.05 | 0.05 | 94 | 1012.5 |
| 20260508103839 | 43 | 292 | 0.0 | 3.0 | 0.00 | 0.05 | 0.05 | 94 | 1012.4 |
| 20260508103350 | 43 | 292 | 1.0 | 3.0 | 0.00 | 0.05 | 0.05 | 94 | 1012.4 |
| 20260508103116 | 42 | 292 | 0.0 | 3.0 | 0.00 | 0.05 | 0.05 | 93 | 1012.5 |
| 20260508103048 | 42 | 274 | 0.0 | 2.0 | 0.00 | 0.05 | 0.05 | 93 | 1011.7 |
| 20260508102837 | 43 | 296 | 0.0 | 0.0 | 0.00 | 0.05 | 0.05 | 93 | 1012.4 |
| 20260508102347 | 43 | 296 | 0.0 | 0.0 | 0.00 | 0.05 | 0.05 | 93 | 1012.4 |
| 20260508101842 | 43 | 296 | 0.0 | 0.0 | 0.00 | 0.05 | 0.05 | 93 | 1012.4 |
| 20260508101617 | 43 | 296 | 0.0 | 0.0 | 0.00 | 0.05 | 0.05 | 93 | 1012.4 |
| 20260508101546 | 43 | 0 | 0.0 | 0.0 | 0.00 | 0.05 | 0.05 | 92 | 1011.8 |
| 20260508101407 | 43 | 296 | 0.0 | 0.0 | 0.00 | 0.05 | 0.05 | 93 | 1012.4 |
| 20260508100838 | 44 | 296 | 0.0 | 0.0 | 0.00 | 0.05 | 0.05 | 93 | 1012.4 |
| 20260508100349 | 44 | 296 | 0.0 | 1.0 | 0.00 | 0.05 | 0.05 | 93 | 1012.3 |
| 20260508100107 | 43 | 296 | 0.0 | 1.0 | 0.00 | 0.05 | 0.05 | 93 | 1012.3 |
| 20260508100039 | 43 | 0 | 0.0 | 1.0 | 0.00 | 0.05 | 0.05 | 92 | 1011.5 |
| 20260508095853 | 44 | 296 | 0.0 | 1.0 | 0.00 | 0.05 | 0.05 | 93 | 1012.3 |
| 20260508095342 | 44 | 296 | 0.0 | 2.0 | 0.00 | 0.05 | 0.05 | 93 | 1012.2 |
| 20260508094912 | 44 | 296 | 1.0 | 3.0 | 0.00 | 0.05 | 0.05 | 93 | 1012.2 |
| 20260508094615 | 44 | 296 | 0.0 | 5.0 | 0.00 | 0.05 | 0.05 | 93 | 1012.2 |
| 20260508094546 | 44 | 0 | 0.0 | 5.0 | 0.00 | 0.05 | 0.05 | 92 | 1011.5 |
| 20260508094341 | 44 | 296 | 1.0 | 5.0 | 0.00 | 0.05 | 0.05 | 93 | 1012.2 |
| 20260508093851 | 45 | 295 | 2.0 | 5.0 | 0.00 | 0.05 | 0.05 | 93 | 1012.2 |
| 20260508093343 | 45 | 285 | 2.0 | 2.0 | 0.00 | 0.05 | 0.05 | 93 | 1012.2 |
| 20260508093106 | 44 | 286 | 1.0 | 2.0 | 0.00 | 0.05 | 0.05 | 93 | 1012.2 |
| 20260508093040 | 44 | 0 | 1.0 | 2.0 | 0.00 | 0.05 | 0.05 | 92 | 1011.4 |
| 20260508092849 | 45 | 286 | 1.0 | 2.0 | 0.00 | 0.05 | 0.05 | 93 | 1012.1 |
| 20260508092340 | 45 | 286 | 0.0 | 2.0 | 0.00 | 0.05 | 0.05 | 92 | 1012.1 |
| 20260508091849 | 45 | 286 | 1.0 | 2.0 | 0.00 | 0.05 | 0.05 | 92 | 1012.0 |
| 20260508091614 | 44 | 293 | 0.0 | 3.0 | 0.00 | 0.05 | 0.05 | 92 | 1012.0 |
| 20260508091555 | 44 | 293 | 0.0 | 3.0 | 0.00 | 0.05 | 0.05 | 92 | 1011.2 |
| 20260508091338 | 45 | 293 | 0.0 | 3.0 | 0.00 | 0.05 | 0.05 | 92 | 1011.8 |
| 20260508090911 | 45 | 294 | 1.0 | 3.0 | 0.00 | 0.05 | 0.05 | 92 | 1011.8 |
| 20260508090342 | 45 | 267 | 0.0 | 3.0 | 0.00 | 0.05 | 0.05 | 92 | 1011.8 |
| 20260508090113 | 45 | 239 | 0.0 | 3.0 | 0.01 | 0.05 | 0.05 | 92 | 1011.8 |
| 20260508090054 | 45 | 0 | 0.0 | 3.0 | 0.01 | 0.05 | 0.05 | 92 | 1011.0 |
| 20260508085847 | 45 | 239 | 0.0 | 3.0 | 0.01 | 0.11 | 0.05 | 92 | 1011.7 |
| 20260508085338 | 45 | 275 | 1.0 | 3.0 | 0.01 | 0.11 | 0.05 | 92 | 1011.6 |
| 20260508084849 | 45 | 292 | 0.0 | 3.0 | 0.01 | 0.11 | 0.05 | 92 | 1011.6 |
| 20260508084620 | 45 | 292 | 0.0 | 3.0 | 0.01 | 0.11 | 0.05 | 92 | 1011.7 |
| 20260508084539 | 45 | 0 | 0.0 | 4.0 | 0.01 | 0.11 | 0.05 | 91 | 1010.9 |
| 20260508084340 | 45 | 292 | 0.0 | 4.0 | 0.01 | 0.11 | 0.05 | 91 | 1011.7 |
| 20260508083850 | 45 | 329 | 2.0 | 4.0 | 0.01 | 0.11 | 0.05 | 92 | 1011.7 |
| 20260508083341 | 45 | 5 | 1.0 | 4.0 | 0.01 | 0.11 | 0.05 | 92 | 1011.8 |
| 20260508083109 | 45 | 296 | 1.0 | 3.0 | 0.01 | 0.11 | 0.05 | 92 | 1011.9 |
| 20260508083041 | 45 | 25 | 1.0 | 4.0 | 0.01 | 0.11 | 0.05 | 91 | 1011.1 |
| 20260508082910 | 45 | 308 | 1.0 | 4.0 | 0.01 | 0.11 | 0.05 | 92 | 1011.8 |
| 20260508082339 | 45 | 290 | 1.0 | 4.0 | 0.01 | 0.11 | 0.05 | 92 | 1011.8 |
| 20260508081849 | 45 | 307 | 2.0 | 3.0 | 0.01 | 0.11 | 0.05 | 92 | 1011.8 |
| 20260508081618 | 44 | 293 | 2.0 | 3.0 | 0.01 | 0.11 | 0.05 | 93 | 1011.9 |
| 20260508081542 | 44 | 304 | 2.0 | 3.0 | 0.01 | 0.11 | 0.05 | 92 | 1011.0 |
| 20260508081339 | 45 | 288 | 2.0 | 3.0 | 0.01 | 0.11 | 0.05 | 93 | 1011.8 |
| 20260508080910 | 45 | 296 | 2.0 | 3.0 | 0.01 | 0.11 | 0.05 | 93 | 1011.8 |
| 20260508080340 | 45 | 303 | 1.0 | 2.0 | 0.01 | 0.10 | 0.04 | 92 | 1011.8 |
| 20260508080111 | 44 | 303 | 0.0 | 2.0 | 0.01 | 0.10 | 0.04 | 92 | 1011.8 |
| 20260508080042 | 44 | 0 | 0.0 | 3.0 | 0.01 | 0.10 | 0.04 | 92 | 1010.9 |
| 20260508075848 | 45 | 312 | 1.0 | 3.0 | 0.01 | 0.16 | 0.04 | 92 | 1011.7 |
| 20260508075338 | 45 | 344 | 0.0 | 3.0 | 0.01 | 0.16 | 0.04 | 92 | 1011.6 |
| 20260508074848 | 45 | 17 | 0.0 | 2.0 | 0.01 | 0.16 | 0.04 | 92 | 1011.7 |
| 20260508074616 | 45 | 332 | 0.0 | 3.0 | 0.01 | 0.16 | 0.04 | 92 | 1011.7 |
| 20260508074545 | 44 | 0 | 0.0 | 3.0 | 0.01 | 0.16 | 0.04 | 91 | 1011.0 |
| 20260508074339 | 45 | 9 | 1.0 | 3.0 | 0.01 | 0.16 | 0.04 | 92 | 1011.8 |
| 20260508073849 | 45 | 19 | 1.0 | 3.0 | 0.01 | 0.16 | 0.04 | 91 | 1011.9 |
| 20260508073341 | 45 | 277 | 1.0 | 3.0 | 0.01 | 0.16 | 0.04 | 91 | 1012.1 |
| 20260508073108 | 45 | 329 | 0.0 | 3.0 | 0.01 | 0.16 | 0.04 | 91 | 1012.1 |
| 20260508073053 | 45 | 304 | 0.0 | 3.0 | 0.01 | 0.16 | 0.04 | 90 | 1011.3 |
| 20260508072848 | 45 | 300 | 1.0 | 3.0 | 0.02 | 0.16 | 0.04 | 91 | 1012.2 |
| 20260508072339 | 45 | 296 | 1.0 | 2.0 | 0.02 | 0.16 | 0.04 | 90 | 1012.2 |
| 20260508071851 | 45 | 336 | 0.0 | 2.0 | 0.04 | 0.16 | 0.04 | 90 | 1012.1 |
| 20260508071621 | 45 | 360 | 0.0 | 2.0 | 0.04 | 0.16 | 0.04 | 90 | 1012.1 |
| 20260508071554 | 45 | 0 | 0.0 | 2.0 | 0.04 | 0.16 | 0.04 | 89 | 1011.3 |
| 20260508071346 | 45 | 360 | 0.0 | 2.0 | 0.04 | 0.16 | 0.04 | 89 | 1012.1 |
| 20260508070837 | 46 | 360 | 1.0 | 2.0 | 0.04 | 0.16 | 0.04 | 89 | 1012.2 |
| 20260508070347 | 46 | 316 | 0.0 | 3.0 | 0.03 | 0.15 | 0.03 | 89 | 1012.3 |
| 20260508070108 | 45 | 316 | 0.0 | 3.0 | 0.03 | 0.15 | 0.03 | 88 | 1012.4 |
| 20260508070053 | 45 | 316 | 0.0 | 6.0 | 0.03 | 0.15 | 0.03 | 88 | 1011.6 |
| 20260508065855 | 46 | 316 | 0.0 | 6.0 | 0.03 | 0.23 | 0.03 | 88 | 1012.4 |
| 20260508065344 | 46 | 279 | 1.0 | 6.0 | 0.03 | 0.23 | 0.03 | 87 | 1012.4 |
| 20260508064854 | 46 | 340 | 1.0 | 5.0 | 0.03 | 0.23 | 0.03 | 86 | 1012.4 |
| 20260508064619 | 46 | 317 | 2.0 | 5.0 | 0.03 | 0.23 | 0.03 | 86 | 1012.4 |
| 20260508064543 | 46 | 347 | 2.0 | 8.0 | 0.03 | 0.23 | 0.03 | 85 | 1011.7 |
| 20260508064343 | 46 | 304 | 2.0 | 8.0 | 0.03 | 0.23 | 0.03 | 85 | 1012.5 |
| 20260508063914 | 47 | 302 | 2.0 | 8.0 | 0.03 | 0.23 | 0.03 | 84 | 1012.5 |
| 20260508063403 | 47 | 306 | 2.0 | 5.0 | 0.03 | 0.23 | 0.03 | 83 | 1012.5 |
| 20260508063122 | 47 | 288 | 1.0 | 8.0 | 0.03 | 0.23 | 0.03 | 82 | 1012.5 |
| 20260508063037 | 47 | 288 | 2.0 | 16.0 | 0.03 | 0.23 | 0.03 | 81 | 1011.7 |
| 20260508062848 | 48 | 279 | 2.0 | 16.0 | 0.02 | 0.22 | 0.02 | 81 | 1012.5 |
| 20260508062338 | 48 | 279 | 4.0 | 16.0 | 0.02 | 0.22 | 0.02 | 77 | 1012.5 |
| 20260508061847 | 49 | 314 | 3.0 | 7.0 | 0.00 | 0.20 | 0.00 | 72 | 1012.3 |
| 20260508061608 | 48 | 293 | 2.0 | 8.0 | 0.00 | 0.20 | 0.00 | 70 | 1012.2 |
| 20260508061545 | 48 | 284 | 1.0 | 8.0 | 0.00 | 0.20 | 0.00 | 69 | 1011.3 |
| 20260508061357 | 48 | 309 | 3.0 | 8.0 | 0.00 | 0.20 | 0.00 | 69 | 1012.0 |
| 20260508060843 | 47 | 312 | 3.0 | 8.0 | 0.00 | 0.20 | 0.00 | 69 | 1011.8 |
| 20260508060355 | 46 | 36 | 5.0 | 8.0 | 0.00 | 0.20 | 0.00 | 72 | 1011.6 |
| 20260508060119 | 45 | 290 | 3.0 | 6.0 | 0.00 | 0.20 | 0.00 | 75 | 1011.7 |
| 20260508060043 | 45 | 293 | 3.0 | 7.0 | 0.00 | 0.20 | 0.00 | 76 | 1010.8 |
| 20260508055842 | 45 | 274 | 3.0 | 5.0 | 0.00 | 0.22 | 0.00 | 79 | 1011.3 |
| 20260508055353 | 45 | 288 | 2.0 | 3.0 | 0.00 | 0.22 | 0.00 | 87 | 1010.5 |
| 20260508054904 | 45 | 325 | 2.0 | 4.0 | 0.00 | 0.22 | 0.00 | 89 | 1010.1 |
| 20260508054612 | 44 | 344 | 1.0 | 4.0 | 0.00 | 0.22 | 0.00 | 90 | 1010.1 |
| 20260508054551 | 44 | 31 | 0.0 | 4.0 | 0.00 | 0.22 | 0.00 | 89 | 1009.5 |
| 20260508054354 | 44 | 5 | 2.0 | 4.0 | 0.00 | 0.22 | 0.00 | 90 | 1010.1 |
| 20260508053845 | 44 | 331 | 0.0 | 1.0 | 0.00 | 0.22 | 0.00 | 90 | 1010.1 |
| 20260508053355 | 44 | 331 | 0.0 | 1.0 | 0.00 | 0.22 | 0.00 | 89 | 1010.1 |
| 20260508053122 | 43 | 331 | 0.0 | 1.0 | 0.00 | 0.22 | 0.00 | 90 | 1010.2 |
| 20260508053044 | 43 | 0 | 0.0 | 1.0 | 0.00 | 0.22 | 0.00 | 89 | 1009.5 |
| 20260508052841 | 44 | 331 | 0.0 | 0.0 | 0.00 | 0.22 | 0.00 | 90 | 1010.2 |
| 20260508052351 | 44 | 331 | 0.0 | 0.0 | 0.00 | 0.22 | 0.00 | 90 | 1010.1 |
| 20260508051900 | 44 | 331 | 0.0 | 0.0 | 0.00 | 0.22 | 0.00 | 90 | 1010.1 |
| 20260508051607 | 43 | 331 | 0.0 | 0.0 | 0.00 | 0.22 | 0.00 | 90 | 1010.1 |
| 20260508051542 | 43 | 0 | 0.0 | 0.0 | 0.00 | 0.22 | 0.00 | 90 | 1009.4 |
| 20260508051410 | 43 | 331 | 0.0 | 0.0 | 0.00 | 0.22 | 0.00 | 90 | 1010.2 |
| 20260508050839 | 43 | 331 | 0.0 | 0.0 | 0.00 | 0.22 | 0.00 | 90 | 1010.2 |
| 20260508050350 | 43 | 331 | 0.0 | 0.0 | 0.00 | 0.22 | 0.00 | 89 | 1010.1 |
| 20260508050115 | 42 | 331 | 0.0 | 0.0 | 0.00 | 0.22 | 0.00 | 89 | 1010.1 |
| 20260508050110 | 42 | 0 | 0.0 | 0.0 | 0.00 | 0.22 | 0.00 | 89 | 1009.5 |
| 20260508045837 | 43 | 331 | 0.0 | 0.0 | 0.00 | 0.22 | 0.00 | 89 | 1010.2 |
| 20260508045346 | 43 | 331 | 0.0 | 0.0 | 0.00 | 0.22 | 0.00 | 89 | 1010.1 |
| 20260508044837 | 43 | 331 | 0.0 | 0.0 | 0.00 | 0.22 | 0.00 | 89 | 1010.0 |
| 20260508044605 | 42 | 331 | 0.0 | 0.0 | 0.00 | 0.22 | 0.00 | 88 | 1009.9 |
| 20260508044540 | 42 | 0 | 0.0 | 0.0 | 0.00 | 0.22 | 0.00 | 88 | 1009.2 |
| 20260508044347 | 43 | 331 | 0.0 | 0.0 | 0.00 | 0.22 | 0.00 | 88 | 1009.9 |
| 20260508043857 | 43 | 331 | 0.0 | 0.0 | 0.00 | 0.22 | 0.00 | 88 | 1009.9 |
| 20260508043349 | 43 | 331 | 0.0 | 0.0 | 0.00 | 0.22 | 0.00 | 88 | 1009.8 |
| 20260508043112 | 42 | 331 | 0.0 | 0.0 | 0.00 | 0.22 | 0.00 | 88 | 1009.8 |
| 20260508043041 | 42 | 0 | 0.0 | 0.0 | 0.00 | 0.22 | 0.00 | 87 | 1009.0 |
| 20260508042855 | 43 | 331 | 0.0 | 0.0 | 0.00 | 0.22 | 0.00 | 88 | 1009.9 |
| 20260508042344 | 43 | 331 | 0.0 | 0.0 | 0.00 | 0.22 | 0.00 | 87 | 1009.9 |
| 20260508041854 | 43 | 331 | 0.0 | 0.0 | 0.00 | 0.22 | 0.00 | 87 | 1009.9 |
| 20260508041622 | 43 | 331 | 0.0 | 0.0 | 0.00 | 0.22 | 0.00 | 87 | 1010.0 |
| 20260508041540 | 43 | 0 | 0.0 | 1.0 | 0.00 | 0.22 | 0.00 | 87 | 1009.2 |
| 20260508041345 | 43 | 331 | 0.0 | 1.0 | 0.00 | 0.22 | 0.00 | 87 | 1010.0 |
| 20260508040854 | 43 | 331 | 0.0 | 1.0 | 0.00 | 0.22 | 0.00 | 87 | 1010.0 |
| 20260508040345 | 43 | 331 | 0.0 | 2.0 | 0.00 | 0.22 | 0.00 | 86 | 1010.0 |
| 20260508040120 | 43 | 331 | 0.0 | 2.0 | 0.00 | 0.22 | 0.00 | 86 | 1010.0 |
| 20260508040045 | 43 | 0 | 0.0 | 2.0 | 0.00 | 0.22 | 0.00 | 85 | 1009.3 |
| 20260508035836 | 44 | 344 | 0.0 | 1.0 | 0.00 | 0.22 | 0.22 | 86 | 1010.1 |
| 20260508035347 | 44 | 344 | 0.0 | 0.0 | 0.00 | 0.22 | 0.22 | 85 | 1010.0 |
| 20260508034838 | 44 | 344 | 0.0 | 0.0 | 0.00 | 0.22 | 0.22 | 85 | 1010.0 |
| 20260508034604 | 43 | 344 | 0.0 | 0.0 | 0.00 | 0.22 | 0.22 | 85 | 1010.0 |
| 20260508034544 | 43 | 0 | 0.0 | 0.0 | 0.00 | 0.22 | 0.22 | 85 | 1009.3 |
| 20260508034410 | 44 | 344 | 0.0 | 0.0 | 0.00 | 0.22 | 0.22 | 85 | 1010.1 |
| 20260508033857 | 44 | 344 | 0.0 | 0.0 | 0.00 | 0.22 | 0.22 | 85 | 1010.1 |
| 20260508033406 | 44 | 344 | 0.0 | 1.0 | 0.00 | 0.22 | 0.22 | 84 | 1010.2 |
| 20260508033107 | 44 | 344 | 0.0 | 1.0 | 0.00 | 0.22 | 0.22 | 84 | 1010.1 |
| 20260508032851 | 45 | 344 | 0.0 | 0.0 | 0.00 | 0.22 | 0.22 | 84 | 1010.1 |
| 20260508032339 | 45 | 344 | 0.0 | 0.0 | 0.00 | 0.22 | 0.22 | 84 | 1010.1 |
| 20260508031850 | 45 | 344 | 0.0 | 1.0 | 0.00 | 0.22 | 0.22 | 84 | 1010.0 |
| 20260508031613 | 44 | 344 | 0.0 | 1.0 | 0.00 | 0.22 | 0.22 | 84 | 1009.9 |
| 20260508031539 | 44 | 0 | 0.0 | 1.0 | 0.00 | 0.22 | 0.22 | 83 | 1009.3 |
| 20260508031340 | 45 | 344 | 0.0 | 1.0 | 0.00 | 0.22 | 0.22 | 83 | 1010.0 |
| 20260508030850 | 45 | 344 | 0.0 | 1.0 | 0.00 | 0.22 | 0.22 | 83 | 1009.9 |
| 20260508030359 | 45 | 344 | 0.0 | 1.0 | 0.00 | 0.22 | 0.22 | 83 | 1009.9 |
| 20260508030121 | 44 | 344 | 0.0 | 1.0 | 0.00 | 0.22 | 0.22 | 83 | 1009.9 |
| 20260508030038 | 44 | 344 | 0.0 | 1.0 | 0.00 | 0.22 | 0.22 | 82 | 1009.2 |
| 20260508025846 | 45 | 344 | 0.0 | 1.0 | 0.00 | 0.22 | 0.22 | 83 | 1009.9 |
| 20260508025415 | 45 | 344 | 0.0 | 1.0 | 0.00 | 0.22 | 0.22 | 83 | 1010.0 |
| 20260508024845 | 45 | 344 | 0.0 | 2.0 | 0.00 | 0.22 | 0.22 | 83 | 1010.0 |
| 20260508024608 | 45 | 344 | 0.0 | 2.0 | 0.00 | 0.22 | 0.22 | 82 | 1010.0 |
| 20260508024554 | 45 | 0 | 0.0 | 2.0 | 0.00 | 0.22 | 0.22 | 82 | 1009.3 |
| 20260508024353 | 46 | 344 | 1.0 | 2.0 | 0.00 | 0.22 | 0.22 | 82 | 1010.0 |
| 20260508023845 | 46 | 344 | 0.0 | 1.0 | 0.00 | 0.22 | 0.22 | 81 | 1010.0 |
| 20260508023357 | 46 | 344 | 0.0 | 1.0 | 0.00 | 0.22 | 0.22 | 81 | 1010.0 |
| 20260508023102 | 46 | 344 | 0.0 | 0.0 | 0.00 | 0.22 | 0.22 | 80 | 1009.9 |
| 20260508023042 | 46 | 0 | 0.0 | 0.0 | 0.00 | 0.22 | 0.22 | 80 | 1009.3 |
| 20260508022844 | 46 | 344 | 0.0 | 0.0 | 0.00 | 0.22 | 0.22 | 80 | 1010.0 |
| 20260508022335 | 46 | 344 | 0.0 | 1.0 | 0.00 | 0.22 | 0.22 | 80 | 1010.0 |
| 20260508021845 | 47 | 344 | 0.0 | 1.0 | 0.00 | 0.22 | 0.22 | 79 | 1009.9 |
| 20260508021615 | 46 | 344 | 0.0 | 0.0 | 0.00 | 0.22 | 0.22 | 79 | 1009.8 |
| 20260508021540 | 46 | 0 | 0.0 | 0.0 | 0.00 | 0.22 | 0.22 | 78 | 1009.2 |
| 20260508021337 | 47 | 344 | 0.0 | 0.0 | 0.00 | 0.22 | 0.22 | 78 | 1009.8 |
| 20260508020909 | 47 | 344 | 0.0 | 0.0 | 0.00 | 0.22 | 0.22 | 78 | 1009.8 |
| 20260508020341 | 47 | 344 | 0.0 | 0.0 | 0.00 | 0.22 | 0.22 | 77 | 1009.8 |
| 20260508020055 | 47 | 0 | 0.0 | 0.0 | 0.00 | 0.22 | 0.22 | 76 | 1009.1 |
| 20260508015847 | 48 | 344 | 0.0 | 0.0 | 0.00 | 0.23 | 0.22 | 76 | 1009.8 |
| 20260508015338 | 48 | 344 | 0.0 | 0.0 | 0.00 | 0.23 | 0.22 | 75 | 1009.8 |
| 20260508014848 | 48 | 344 | 0.0 | 0.0 | 0.00 | 0.23 | 0.22 | 74 | 1009.8 |
| 20260508014617 | 48 | 344 | 0.0 | 0.0 | 0.00 | 0.23 | 0.22 | 74 | 1009.7 |
| 20260508014538 | 48 | 0 | 0.0 | 0.0 | 0.00 | 0.23 | 0.22 | 73 | 1009.1 |
| 20260508014340 | 49 | 344 | 0.0 | 0.0 | 0.00 | 0.23 | 0.22 | 74 | 1009.8 |
| 20260508013850 | 49 | 344 | 0.0 | 0.0 | 0.00 | 0.23 | 0.22 | 73 | 1009.8 |
| 20260508013341 | 49 | 344 | 0.0 | 2.0 | 0.00 | 0.23 | 0.22 | 72 | 1009.8 |
| 20260508013107 | 49 | 344 | 0.0 | 2.0 | 0.00 | 0.23 | 0.22 | 72 | 1009.7 |
| 20260508013045 | 49 | 0 | 0.0 | 2.0 | 0.00 | 0.23 | 0.22 | 71 | 1009.1 |
| 20260508012848 | 50 | 344 | 0.0 | 2.0 | 0.00 | 0.23 | 0.22 | 72 | 1009.8 |
| 20260508011851 | 50 | 298 | 0.0 | 1.0 | 0.00 | 0.23 | 0.22 | 70 | 1009.7 |
| 20260508011620 | 50 | 298 | 0.0 | 1.0 | 0.00 | 0.23 | 0.22 | 69 | 1009.5 |
| 20260508011545 | 50 | 0 | 0.0 | 1.0 | 0.00 | 0.23 | 0.22 | 69 | 1008.9 |
| 20260508011340 | 51 | 298 | 0.0 | 1.0 | 0.00 | 0.23 | 0.22 | 69 | 1009.6 |
| 20260508010835 | 51 | 298 | 0.0 | 1.0 | 0.00 | 0.23 | 0.22 | 68 | 1009.6 |
| 20260508010403 | 52 | 298 | 0.0 | 1.0 | 0.00 | 0.23 | 0.22 | 68 | 1009.6 |
| 20260508010106 | 52 | 298 | 0.0 | 1.0 | 0.00 | 0.23 | 0.22 | 67 | 1009.5 |
| 20260508010039 | 52 | 0 | 0.0 | 1.0 | 0.00 | 0.23 | 0.22 | 66 | 1008.8 |
| 20260508005850 | 52 | 298 | 0.0 | 1.0 | 0.00 | 0.23 | 0.22 | 67 | 1009.4 |